Change the Weather History Date:

Monday, April 8, 2013

  Actual Average Record
Temperature  
Mean Temperature 76 °F -  
Max Temperature 89 °F 82 °F 91 °F (1998)
Min Temperature 64 °F 65 °F 62 °F (2006)
Cooling Degree Days 12    
Growing Degree Days 26 (Base 50)    
Moisture  
Dew Point 59 °F    
Average Humidity 57    
Maximum Humidity 78    
Minimum Humidity 30    
Precipitation  
Precipitation 0.00 in 0.17 in - ()
Sea Level Pressure  
Sea Level Pressure 29.93 in    
Wind  
Wind Speed 8 mph ()    
Max Wind Speed 12 mph    
Max Gust Speed 21 mph    
Visibility 8.6 miles    
Events      
Averages and records for this station are not official NWS values.
T = Trace of Precipitation, MM = Missing Value Source: Averaged Metar Reports

Daily Weather History Graph

Daily Weather History Graph

Search for Another Location

Airport or City:

Trip Planner

Search our weather history database for the weather conditions in past years. The results will help you decide how hot, cold, wet, or windy it might be!

Date:

Astronomy

Apr. 08, 2013 Rise Set
Actual Time 5:29 AM CST 5:47 PM CST
Civil Twilight 5:08 AM CST 6:08 PM CST
Nautical Twilight 4:44 AM CST 6:33 PM CST
Astronomical Twilight 4:19 AM CST 6:57 PM CST
Moon 4:03 AM CST (4/8) 4:30 PM CST (4/8)
Length of Visible Light 12h 59m
Length of Day
12h 17m
Waning Crescent, 3% of the Moon is Illuminated
Apr 8
Waning Crescent
Apr 10
New
Apr 18
First Quarter
Apr 25
Full
May 2
Last Quarter

Hourly Weather History & Observations

Time (CST) Temp. Heat Index Dew Point Humidity Pressure Visibility Wind Dir Wind Speed Gust Speed Precip Events Conditions
12:00 AM 70 °F - 59 °F 60% 29.82 in 12 mi East 10.4 mph - -  
12:00 AM 69.8 °F - 59.0 °F 68% 30.00 in - East 10.4 mph - N/A   Clear
1:00 AM 69.8 °F - 59.0 °F 68% 29.98 in - ESE 10.4 mph - N/A   Clear
2:00 AM 68.0 °F - 59.0 °F 73% 29.96 in - East 8.1 mph - N/A   Clear
3:00 AM 68 °F - 59 °F 65% 29.79 in 12 mi East 8.1 mph - -  
3:00 AM 68.0 °F - 59.0 °F 73% 29.95 in - East 8.1 mph - N/A   Clear
4:00 AM 68.0 °F - 59.0 °F 73% 29.96 in - East 8.1 mph - N/A   Clear
5:00 AM 66.2 °F - 59.0 °F 78% 29.96 in - East 10.4 mph - N/A   Clear
6:00 AM 68 °F - 57 °F 60% 29.82 in 12 mi East 11.5 mph - -  
6:00 AM 68.0 °F - 57.2 °F 68% 29.98 in - East 11.5 mph - N/A   Clear
7:00 AM 73.4 °F - 55.4 °F 53% 30.00 in - ENE 10.4 mph - N/A   Clear
8:00 AM 75.2 °F - 53.6 °F 47% 30.01 in - East 11.5 mph - N/A   Clear
9:00 AM 80 °F - 54 °F 30% 29.84 in 12 mi East 11.5 mph - -  
9:00 AM 78.8 °F - 53.6 °F 42% 30.02 in - East 11.5 mph - N/A   Clear
10:00 AM 82.4 °F 81.7 °F 55.4 °F 39% 30.02 in - ESE 10.4 mph - N/A   Clear
11:00 AM 86.0 °F 84.2 °F 53.6 °F 33% 30.00 in - ENE 6.9 mph - N/A   Clear
12:00 PM 87 °F - 70 °F 47% 29.79 in 12 mi East 4.6 mph - -   Scattered Clouds
12:00 PM 87.8 °F 86.5 °F 57.2 °F 35% 29.98 in 6.2 mi East 4.6 mph - N/A   Partly Cloudy
1:00 PM 86.0 °F 84.5 °F 55.4 °F 35% 29.93 in 6.2 mi ESE 5.8 mph - N/A   Partly Cloudy
2:00 PM 87.8 °F 88.5 °F 62.6 °F 43% 29.91 in 6.2 mi WSW 9.2 mph - N/A   Scattered Clouds
3:00 PM 85 °F - 63 °F 37% 29.72 in 12 mi SW 6.9 mph - -   Partly Cloudy
3:00 PM 84.2 °F 85.0 °F 62.6 °F 48% 29.90 in 6.2 mi SW 6.9 mph - N/A   Scattered Clouds
4:00 PM 82.4 °F 82.5 °F 59.0 °F 45% 29.90 in 6.2 mi SE 5.8 mph - N/A   Scattered Clouds
5:00 PM 80.6 °F 81.5 °F 60.8 °F 51% 29.92 in 6.2 mi South 6.9 mph - N/A   Scattered Clouds
6:00 PM 75 °F - 62 °F 56% 29.81 in 12 mi SSE 8.1 mph - -   Partly Cloudy
6:00 PM 75.2 °F - 62.6 °F 65% 29.95 in 6.2 mi SSE 8.1 mph - N/A   Scattered Clouds
7:00 PM 75.2 °F - 62.6 °F 65% 29.98 in 6.2 mi SE 3.5 mph - N/A   Scattered Clouds
8:00 PM 73.4 °F - 62.6 °F 69% 30.01 in 6.2 mi East 8.1 mph - N/A   Scattered Clouds
9:00 PM 72 °F - 62 °F 64% 29.85 in 12 mi East 9.2 mph - -   Scattered Clouds
9:00 PM 71.6 °F - 62.6 °F 73% 30.03 in 6.2 mi East 9.2 mph 20.7 mph N/A   Partly Cloudy
10:00 PM 69.8 °F - 60.8 °F 73% 30.03 in 6.2 mi East 9.2 mph - N/A   Partly Cloudy
11:00 PM 69.8 °F - 60.8 °F 73% 30.03 in - NE 4.6 mph - N/A   Clear